Snowfall_Accumulation
0.0 0.0 0.0 0.0 0.0 0.0 0.0 0.0 0.0 0.0 0.0 0.0 0.0 0.0 0.0 0.0 0.0 0.0 0.0 nan nan nan nan nan nan nan nan nan nan nan nan nan nan nan nan nan nan nan
0.0 0.0 0.0 0.0 0.0 0.0 0.0 0.0 0.0 0.0 0.0 0.0 0.0 0.0 0.0 0.0 0.0 0.0 0.0 nan nan nan nan nan nan nan nan nan nan nan nan nan nan nan nan nan nan nan
0.0 0.0 0.0 0.0 0.0 0.0 0.0 0.0 0.0 0.0 0.0 0.0 0.0 0.0 0.0 0.0 0.0 0.0 0.0 0.0 0.0 nan nan nan nan nan nan nan nan nan nan nan nan nan nan nan nan nan
0.0 0.0 0.0 0.0 0.0 0.0 0.0 0.0 0.0 0.0 0.0 0.0 0.0 0.0 0.0 0.0 0.0 0.0 0.0 0.0 0.0 nan nan nan nan nan nan nan nan nan nan nan nan nan nan nan nan nan
0.0 0.0 0.0 0.0 0.0 0.0 0.0 0.0 0.0 0.0 0.0 0.0 0.0 0.0 0.0 0.0 0.0 0.0 0.0 0.0 0.0 nan nan nan nan nan nan nan nan nan nan nan nan nan nan nan nan nan
0.0 0.0 0.0 0.0 0.0 0.0 0.0 0.0 0.0 0.0 0.0 0.0 0.0 0.0 0.0 0.0 0.0 0.0 0.0 0.0 0.0 0.0 nan nan nan nan nan nan nan nan nan nan nan nan nan nan nan nan
0.0 0.0 0.0 nan nan nan 0.0 0.0 0.0 0.0 0.0 0.0 0.0 0.0 0.0 0.0 0.0 0.0 0.0 0.0 0.0 0.0 0.0 0.0 0.0 0.0 0.0 nan nan nan nan nan nan nan nan nan nan nan
0.0 0.0 0.0 0.0 0.0 nan nan nan nan 0.0 0.0 0.0 0.0 0.0 0.0 0.0 0.0 0.0 0.0 0.1 0.1 0.0 0.0 0.0 0.0 0.0 0.0 0.0 nan nan nan nan nan nan nan nan nan nan
0.0 0.0 0.0 0.0 nan 0.0 nan nan nan nan nan 0.0 0.0 0.0 0.0 0.0 0.0 0.0 0.0 0.1 0.0 0.0 0.0 0.0 0.0 0.0 0.0 0.0 nan nan nan nan nan nan nan nan nan nan
0.0 0.0 0.0 0.0 0.0 0.0 0.0 0.0 0.0 0.0 0.0 0.0 0.0 0.0 0.0 0.0 0.0 0.0 0.0 0.0 0.0 0.0 0.0 0.3 0.0 0.0 0.0 0.0 nan nan nan nan nan nan nan nan nan nan
0.0 0.0 0.0 0.0 nan nan 0.0 0.0 0.0 0.0 nan nan nan nan nan nan nan 0.0 0.2 0.3 0.2 0.1 0.0 0.1 0.1 0.1 0.0 0.0 0.0 nan nan nan nan nan nan nan nan nan
0.0 0.0 nan 0.0 nan nan 0.0 0.0 0.0 0.0 0.0 0.0 0.0 0.0 nan nan nan 0.0 0.2 0.9 0.7 0.6 0.2 0.6 0.3 0.3 0.8 0.1 0.1 0.0 0.0 nan nan nan nan nan nan 0.0
0.0 0.0 0.0 nan nan nan nan 0.0 0.0 0.0 0.0 0.0 0.1 0.2 0.1 0.1 0.1 0.1 0.0 0.7 1.5 1.0 0.1 0.5 1.4 0.5 0.7 0.5 0.2 0.1 0.0 0.0 0.0 0.0 nan nan nan 0.0
0.0 0.0 0.0 nan nan nan nan nan nan nan 0.0 0.0 0.1 0.2 0.3 0.4 0.3 0.2 0.0 0.1 0.2 0.4 0.0 0.1 4.9 1.2 2.2 1.5 0.7 0.3 0.2 0.1 0.1 0.1 0.1 nan nan nan
0.0 0.0 nan nan nan nan nan nan nan 0.0 0.0 0.3 0.3 0.5 0.5 0.5 0.2 0.4 0.1 0.1 0.2 0.1 0.0 0.4 2.0 1.1 2.1 2.9 2.0 0.9 0.9 0.4 0.2 0.5 0.5 0.3 0.2 0.1
nan 0.1 nan 0.0 nan nan 0.0 0.0 0.0 0.0 0.1 0.3 0.3 0.3 0.4 0.9 0.9 0.8 1.9 1.9 3.1 1.5 0.2 0.4 0.9 1.3 5.2 1.4 2.1 2.0 0.6 4.4 0.7 0.5 0.5 0.5 0.3 0.2
nan 0.0 0.0 0.0 0.1 0.0 0.0 0.0 0.0 0.0 0.3 0.3 0.5 0.7 0.7 1.0 1.3 1.3 2.6 3.2 5.6 3.4 3.6 2.4 0.8 0.7 1.4 2.2 6.4 1.4 1.3 1.9 1.1 1.6 2.8 2.1 0.4 0.1
0.0 0.0 0.1 0.1 0.1 0.0 0.0 0.0 0.1 0.4 0.3 0.6 0.9 1.1 1.9 2.4 2.7 3.4 3.6 4.6 6.1 3.3 3.6 3.1 4.4 6.8 4.3 2.4 2.8 2.9 1.8 2.5 1.6 1.3 1.7 5.0 2.1 0.3
0.0 0.2 0.3 0.3 0.3 0.3 0.4 0.6 1.4 0.6 0.5 2.5 2.4 2.5 2.9 3.4 3.5 4.0 4.1 3.9 4.3 3.5 3.8 3.9 8.4 10.8 14.7 10.0 1.0 nan 7.1 3.1 2.7 2.8 1.1 2.3 2.6 0.9
0.3 0.4 0.6 0.5 0.6 1.0 1.2 1.7 1.6 1.6 2.3 2.6 3.2 3.9 5.0 6.3 6.5 5.6 4.1 6.4 4.9 4.6 5.2 4.7 8.1 11.7 21.4 17.6 11.9 3.7 nan 4.6 3.5 4.4 3.1 1.1 0.6 nan
0.3 0.4 0.3 0.5 0.7 0.8 0.9 1.2 1.1 2.5 3.8 5.4 4.4 5.6 5.2 6.8 5.9 4.1 3.5 2.1 nan 5.1 9.3 5.4 3.8 nan 7.5 9.4 12.6 2.6 2.1 nan 0.8 5.3 3.9 5.6 3.7 1.8
0.2 0.3 0.3 0.4 0.6 1.0 1.4 1.6 2.5 2.8 3.2 3.3 4.3 4.6 4.4 4.8 6.3 4.6 3.6 6.5 4.3 4.1 5.4 3.3 3.5 5.2 9.5 12.5 11.0 4.8 3.4 1.8 nan nan nan nan 13.2 18.8
0.4 0.3 0.4 0.6 0.8 1.0 1.6 2.5 3.7 3.6 3.5 4.7 4.7 4.2 4.5 7.5 3.0 3.5 3.9 4.0 5.2 6.1 4.8 8.3 4.8 4.8 6.1 9.5 11.4 7.1 3.9 3.9 2.5 3.3 2.6 nan nan nan
Water_Equivalent
0.00 0.00 0.00 0.00 0.00 0.00 0.00 0.00 0.00 0.00 0.00 0.00 0.00 0.00 0.00 0.00 0.00 0.00 0.00 nan nan nan nan nan nan nan nan nan nan nan nan nan nan nan nan nan nan nan
0.00 0.00 0.00 0.00 0.00 0.00 0.00 0.00 0.00 0.00 0.00 0.00 0.00 0.00 0.00 0.00 0.00 0.00 0.00 nan nan nan nan nan nan nan nan nan nan nan nan nan nan nan nan nan nan nan
0.00 0.00 0.00 0.00 0.00 0.00 0.00 0.00 0.00 0.00 0.00 0.00 0.00 0.00 0.00 0.00 0.00 0.00 0.00 0.00 0.00 nan nan nan nan nan nan nan nan nan nan nan nan nan nan nan nan nan
0.00 0.00 0.00 0.00 0.00 0.00 0.00 0.00 0.00 0.00 0.00 0.00 0.00 0.00 0.00 0.00 0.00 0.00 0.00 0.00 0.00 nan nan nan nan nan nan nan nan nan nan nan nan nan nan nan nan nan
0.00 0.00 0.00 0.00 0.00 0.00 0.00 0.00 0.00 0.00 0.00 0.00 0.00 0.00 0.00 0.00 0.00 0.00 0.00 0.00 0.00 nan nan nan nan nan nan nan nan nan nan nan nan nan nan nan nan nan
0.00 0.00 0.00 0.00 0.00 0.00 0.00 0.00 0.00 0.00 0.00 0.00 0.00 0.00 0.00 0.00 0.00 0.00 0.00 0.00 0.00 0.00 nan nan nan nan nan nan nan nan nan nan nan nan nan nan nan nan
0.00 0.00 0.00 nan nan nan 0.00 0.00 0.00 0.00 0.00 0.00 0.00 0.00 0.00 0.00 0.00 0.00 0.00 0.00 0.00 0.00 0.00 0.00 0.00 0.00 0.00 nan nan nan nan nan nan nan nan nan nan nan
0.00 0.00 0.00 0.00 0.00 nan nan nan nan 0.00 0.00 0.01 0.02 0.00 0.00 0.00 0.00 0.00 0.00 0.04 0.06 0.00 0.00 0.00 0.00 0.00 0.00 0.00 nan nan nan nan nan nan nan nan nan nan
0.00 0.00 0.00 0.00 nan 0.00 nan nan nan nan nan 0.00 0.00 0.00 0.00 0.00 0.00 0.00 0.00 0.05 0.01 0.00 0.00 0.00 0.00 0.00 0.00 0.00 nan nan nan nan nan nan nan nan nan nan
0.00 0.00 0.00 0.00 0.00 0.00 0.00 0.00 0.00 0.00 0.00 0.00 0.00 0.00 0.00 0.00 0.00 0.00 0.00 0.00 0.00 0.00 0.00 0.13 0.00 0.00 0.00 0.00 nan nan nan nan nan nan nan nan nan nan
0.00 0.00 0.00 0.00 nan nan 0.00 0.00 0.00 0.00 nan nan nan nan nan nan nan 0.01 0.09 0.14 0.09 0.02 0.00 0.04 0.02 0.04 0.01 0.00 0.00 nan nan nan nan nan nan nan nan nan
0.00 0.00 nan 0.00 nan nan 0.00 0.00 0.00 0.00 0.00 0.00 0.00 0.00 nan nan nan 0.00 0.08 0.36 0.27 0.24 0.08 0.24 0.11 0.11 0.27 0.05 0.03 0.00 0.00 nan nan nan nan nan nan 0.00
0.00 0.00 0.00 nan nan nan nan 0.00 0.00 0.00 0.00 0.00 0.02 0.06 0.04 0.02 0.02 0.02 0.01 0.27 0.61 0.42 0.04 0.21 0.57 0.21 0.28 0.20 0.08 0.06 0.01 0.00 0.00 0.00 nan nan nan 0.00
0.00 0.00 0.00 nan nan nan nan nan nan nan 0.00 0.00 0.05 0.09 0.13 0.15 0.13 0.10 0.01 0.05 0.08 0.15 0.02 0.02 1.95 0.48 0.79 0.44 0.23 0.10 0.08 0.05 0.03 0.03 0.02 nan nan nan
0.00 0.00 nan nan nan nan nan nan nan 0.00 0.01 0.11 0.14 0.19 0.20 0.20 0.09 0.14 0.03 0.03 0.07 0.03 0.00 0.16 0.79 0.46 0.82 0.87 0.55 0.27 0.31 0.15 0.09 0.21 0.19 0.12 0.06 0.04
nan 0.03 nan 0.00 nan nan 0.00 0.00 0.00 0.00 0.05 0.11 0.13 0.11 0.16 0.35 0.34 0.30 0.67 0.66 1.00 0.56 0.09 0.15 0.34 0.48 1.43 0.46 0.61 0.55 0.21 1.15 0.26 0.20 0.20 0.20 0.12 0.07
nan 0.00 0.00 0.00 0.02 0.00 0.00 0.00 0.00 0.00 0.11 0.11 0.19 0.24 0.25 0.36 0.46 0.48 0.87 1.06 1.46 0.94 0.87 0.70 0.23 0.23 0.46 0.62 1.27 0.39 0.38 0.56 0.39 0.56 0.90 0.76 0.17 0.04
0.00 0.00 0.04 0.05 0.06 0.00 0.00 0.00 0.02 0.14 0.13 0.23 0.32 0.38 0.60 0.73 0.81 1.04 1.18 1.25 1.46 0.84 0.89 0.77 0.89 1.20 0.91 0.59 0.76 0.74 0.50 0.72 0.53 0.41 0.54 1.16 0.57 0.10
0.00 0.09 0.10 0.11 0.11 0.12 0.15 0.22 0.45 0.22 0.17 0.85 0.77 0.79 0.87 0.99 1.03 1.12 1.11 1.04 1.01 0.88 0.98 1.01 1.56 1.89 1.98 1.25 0.26 nan 1.60 0.84 0.73 0.69 0.32 0.59 0.63 0.29
0.10 0.14 0.20 0.20 0.23 0.35 0.40 0.57 0.53 0.53 0.74 0.86 1.00 1.17 1.41 1.71 1.71 1.42 1.06 1.36 1.09 1.12 1.20 1.12 1.69 2.25 3.36 2.72 2.01 0.80 nan 1.10 0.81 0.91 0.69 0.31 0.19 nan
0.11 0.14 0.12 0.18 0.25 0.32 0.34 0.44 0.37 0.87 1.29 1.67 1.30 1.55 1.48 1.83 1.51 1.08 0.92 0.58 nan 1.17 1.53 1.03 0.94 nan 2.09 1.93 1.88 0.47 0.53 nan 0.19 1.16 0.94 1.04 0.67 0.38
0.08 0.11 0.11 0.17 0.25 0.38 0.53 0.61 0.92 1.00 1.06 1.05 1.24 1.39 1.27 1.32 1.53 1.13 0.85 1.34 0.89 0.95 1.19 0.98 0.94 1.41 2.12 1.96 1.45 0.73 0.64 0.43 nan nan nan nan 2.46 3.10
0.14 0.13 0.17 0.24 0.31 0.41 0.59 0.86 1.25 1.19 1.13 1.50 1.46 1.25 1.26 1.65 0.74 0.86 0.90 0.88 1.12 1.25 1.03 1.34 0.98 1.05 1.22 1.67 1.86 1.17 0.58 0.60 0.50 0.63 0.65 nan nan nan
SL_Ratio
nan nan nan nan nan nan nan nan nan nan nan nan nan nan nan nan nan nan nan nan nan nan nan nan nan nan nan nan nan nan nan nan nan nan nan nan nan nan
nan nan nan nan nan nan nan nan nan nan nan nan nan nan nan nan nan nan nan nan nan nan nan nan nan nan nan nan nan nan nan nan nan nan nan nan nan nan
nan nan nan nan nan nan nan nan nan nan nan nan nan nan nan nan nan nan nan nan nan nan nan nan nan nan nan nan nan nan nan nan nan nan nan nan nan nan
nan nan nan nan nan nan nan nan nan nan nan nan nan nan nan nan nan nan nan nan nan nan nan nan nan nan nan nan nan nan nan nan nan nan nan nan nan nan
nan nan nan nan nan nan nan nan nan nan nan nan nan nan nan nan nan nan nan nan nan nan nan nan nan nan nan nan nan nan nan nan nan nan nan nan nan nan
nan nan nan nan nan nan nan nan nan nan nan nan nan nan nan nan nan nan nan nan nan nan nan nan nan nan nan nan nan nan nan nan nan nan nan nan nan nan
nan nan nan nan nan nan nan nan nan nan nan nan nan nan nan nan nan nan nan nan nan nan nan nan nan nan nan nan nan nan nan nan nan nan nan nan nan nan
nan nan nan nan nan nan nan nan nan nan nan 2.4 2.5 5.0 nan nan nan nan 0.0 2.5 2.5 nan nan nan nan nan nan nan nan nan nan nan nan nan nan nan nan nan
nan nan nan nan nan nan nan nan nan nan nan nan 0.0 nan nan nan nan 0.0 nan 2.5 2.6 nan nan nan nan nan nan nan nan nan nan nan nan nan nan nan nan nan
nan nan nan nan nan nan nan nan nan nan nan nan nan nan nan nan nan nan nan nan nan nan nan 2.5 5.0 nan nan nan nan nan nan nan nan nan nan nan nan nan
nan nan nan nan nan nan nan nan nan nan nan nan nan nan nan nan nan 2.7 2.5 2.5 2.5 2.5 2.5 2.5 2.5 2.5 2.4 nan nan nan nan nan nan nan nan nan nan nan
nan nan nan nan nan nan nan nan nan nan nan nan nan nan nan nan nan nan 2.5 2.5 2.5 2.5 2.5 2.5 2.5 2.5 2.8 2.5 2.5 nan nan nan nan nan nan nan nan nan
nan nan nan nan nan nan nan nan nan nan nan nan 2.7 2.8 2.9 2.9 3.2 2.8 2.9 2.5 2.5 2.5 2.5 2.5 2.5 2.5 2.5 2.7 2.5 2.5 2.5 nan nan nan nan nan nan nan
nan nan nan nan nan nan nan nan nan nan nan nan 2.5 2.5 2.5 2.5 2.5 2.5 2.2 2.5 2.5 2.5 2.5 2.6 2.5 2.6 2.8 3.3 3.2 2.5 2.5 2.5 2.5 2.5 2.5 nan nan nan
nan nan nan nan nan nan nan nan nan 2.0 2.4 2.5 2.5 2.5 2.5 2.5 2.5 2.6 2.6 2.6 2.5 2.4 1.7 2.5 2.5 2.5 2.6 3.3 3.7 3.3 3.0 2.5 2.5 2.5 2.5 2.5 2.5 2.5
nan 2.5 nan nan nan nan nan nan nan nan 2.5 2.5 2.5 2.5 2.5 2.6 2.7 2.6 2.9 2.8 3.1 2.8 2.7 2.5 2.6 2.6 3.6 3.1 3.4 3.7 2.9 3.8 2.6 2.5 2.5 2.5 2.5 2.5
nan nan nan nan 2.6 nan nan nan nan nan 2.6 2.5 2.7 2.8 2.7 2.8 2.9 2.8 3.0 3.0 3.8 3.7 4.1 3.5 3.5 3.1 3.0 3.6 5.0 3.5 3.4 3.3 2.8 2.8 3.2 2.8 2.5 2.5
nan nan 2.5 2.5 2.5 nan nan 5.0 2.5 2.6 2.6 2.6 2.8 2.9 3.2 3.3 3.3 3.3 3.1 3.6 4.2 3.9 4.0 4.0 5.0 5.6 4.7 4.0 3.7 4.0 3.7 3.5 3.0 3.0 3.2 4.3 3.7 2.7
nan 2.5 2.6 2.7 2.6 2.7 2.7 2.7 3.0 2.6 2.6 2.9 3.1 3.2 3.3 3.5 3.4 3.6 3.7 3.8 4.2 3.9 3.9 3.9 5.4 5.7 7.4 8.0 3.8 nan 4.4 3.7 3.6 4.0 3.3 3.8 4.1 3.1
2.5 2.6 2.8 2.7 2.7 2.8 2.9 3.0 3.0 3.0 3.1 3.1 3.2 3.3 3.5 3.7 3.8 3.9 3.8 4.7 4.4 4.1 4.3 4.2 4.8 5.2 6.4 6.5 5.9 4.7 nan 4.2 4.4 4.8 4.4 3.6 3.4 nan
2.5 2.6 2.5 2.5 2.6 2.6 2.6 2.7 2.9 2.9 2.9 3.2 3.4 3.6 3.5 3.7 3.9 3.8 3.9 3.7 nan 4.3 6.1 5.3 4.0 nan 3.6 4.9 6.7 5.6 4.0 nan 4.0 4.6 4.1 5.3 5.5 4.8
2.5 2.7 2.5 2.5 2.5 2.5 2.6 2.6 2.8 2.8 3.0 3.2 3.5 3.3 3.5 3.6 4.1 4.1 4.3 4.9 4.8 4.3 4.5 3.4 3.8 3.7 4.5 6.4 7.6 6.7 5.3 4.2 nan nan nan nan 5.4 6.1
2.6 2.6 2.5 2.5 2.5 2.5 2.6 2.9 3.0 3.0 3.1 3.1 3.2 3.3 3.6 4.6 4.0 4.1 4.3 4.6 4.6 4.9 4.7 6.2 4.9 4.6 5.0 5.7 6.1 6.0 6.7 6.5 5.1 5.2 4.1 nan nan nan